Zurück zum Katalog

DMSP 5D-2 F11 DEB

AktivPO
NORAD 28326·DEBRIS·🇺🇸 United States

Gestartet Nov 28, 1991 von Vandenberg Space Force Base

Loading…

Nächste Überflüge (nächste 24 Stunden)

TLE

AktuellSource: Space-Track

Epoche: Sep 14, 2026, 06:04 UTC

1 28326U 91082AP  26257.25343834  .00004961  00000-0  13260-2 0  9999
2 28326  98.8176   7.6330 0044798  99.4502 261.1758 14.48198269155915

Verfolge DMSP 5D-2 F11 DEB in Echtzeit mit AllMySat

Download on the App Store